N7BDR Weather Reports


Display with metric or nautical units.
time (UTC)temp
F
wind
direction
speed
MPH
gust
MPH
rain 1hr
in
rain 24hr
in
rain mn
in
humidity
%
barometer
mb
20260505080057 56 270 4.0 14.0 0.00 0.00 0.00 64 1002.4
20260505075607 57 210 5.0 14.0 0.00 0.00 0.00 62 1002.5
20260505073748 58 167 5.0 16.0 0.00 0.00 0.00 54 1002.5
20260505073254 58 242 5.0 15.0 0.00 0.00 0.00 54 1002.6
20260505072755 58 175 4.0 14.0 0.00 0.00 0.00 53 1002.4
20260505072257 58 251 3.0 11.0 0.00 0.00 0.00 52 1002.4
20260505071737 58 253 4.0 16.0 0.00 0.00 0.00 51 1002.2
20260505071229 58 139 6.0 16.0 0.00 0.00 0.00 51 1002.2
20260505070116 58 288 7.0 16.0 0.00 0.00 0.00 53 1001.9
20260505065603 58 174 6.0 21.0 0.00 0.00 0.00 53 1002.0
20260505065059 58 204 7.0 21.0 0.00 0.00 0.00 53 1001.9
20260505064607 58 205 7.0 21.0 0.00 0.00 0.00 54 1001.8
20260505064116 58 216 7.0 21.0 0.00 0.00 0.00 54 1001.7
20260505063606 58 168 6.0 21.0 0.00 0.00 0.00 55 1001.8
20260505063107 58 197 8.0 21.0 0.00 0.00 0.00 54 1001.7
20260505062604 59 193 8.0 22.0 0.00 0.00 0.00 53 1001.7
20260505062056 58 199 7.0 22.0 0.00 0.00 0.00 53 1001.7
20260505060915 58 101 7.0 26.0 0.00 0.00 0.00 54 1001.7
20260505055743 59 213 9.0 26.0 0.00 0.00 0.00 54 1001.7
20260505055246 59 266 9.0 19.0 0.00 0.00 0.00 54 1001.8
20260505054749 59 234 8.0 19.0 0.00 0.00 0.00 54 1001.7
20260505054237 59 173 8.0 19.0 0.00 0.00 0.00 54 1001.8
20260505053719 59 178 8.0 19.0 0.00 0.00 0.00 54 1001.8
20260505053221 59 163 8.0 19.0 0.00 0.00 0.00 54 1001.8
20260505052730 60 179 9.0 28.0 0.00 0.00 0.00 54 1001.7
20260505051556 61 266 9.0 28.0 0.00 0.00 0.00 52 1001.7
20260505051105 61 171 8.0 28.0 0.00 0.00 0.00 51 1001.6
20260505050603 61 213 6.0 22.0 0.00 0.00 0.00 50 1001.6
20260505041411 64 181 4.0 14.0 0.00 0.00 0.00 39 1000.9
20260505040857 64 261 4.0 11.0 0.00 0.00 0.00 39 1000.8
20260505040406 64 223 4.0 11.0 0.00 0.00 0.00 40 1000.6
20260505035851 64 162 4.0 11.0 0.00 0.00 0.00 40 1000.6
20260505034108 64 275 4.0 11.0 0.00 0.00 0.00 41 1000.2
20260505033605 64 246 4.0 11.0 0.00 0.00 0.00 41 1000.2
20260505033109 64 260 4.0 11.0 0.00 0.00 0.00 41 1000.2
20260505032604 64 265 3.0 11.0 0.00 0.00 0.00 40 1000.3
20260505032054 65 277 2.0 8.0 0.00 0.00 0.00 40 1000.4
20260505030918 65 239 2.0 10.0 0.00 0.00 0.00 39 1000.2
20260505030418 65 271 3.0 12.0 0.00 0.00 0.00 39 1000.2
20260505025253 66 173 5.0 12.0 0.00 0.00 0.00 38 1000.0
20260505024758 66 208 4.0 12.0 0.00 0.00 0.00 37 999.9
20260505024257 66 232 3.0 12.0 0.00 0.00 0.00 36 999.8
20260505023116 66 229 4.0 11.0 0.00 0.00 0.00 36 999.6
20260505022559 66 140 4.0 11.0 0.00 0.00 0.00 36 999.6
20260505022102 67 180 4.0 11.0 0.00 0.00 0.00 36 999.6
20260505020948 67 309 1.0 10.0 0.00 0.00 0.00 35 999.5
20260505020447 67 227 0.0 2.0 0.00 0.00 0.00 34 999.3
20260505015340 68 253 0.0 0.0 0.00 0.00 0.00 34 999.3
20260505014823 68 255 0.0 0.0 0.00 0.00 0.00 34 999.3
20260505013646 68 265 0.0 0.0 0.00 0.00 0.00 33 999.5
20260505013139 68 270 0.0 0.0 0.00 0.00 0.00 33 999.5
20260505012630 68 261 0.0 0.0 0.00 0.00 0.00 33 999.5
20260505012128 68 274 0.0 0.0 0.00 0.00 0.00 33 999.5
20260505011009 69 275 0.0 0.0 0.00 0.00 0.00 33 999.6
20260505010451 69 119 0.0 4.0 0.00 0.00 0.00 32 999.7
20260505005959 69 306 0.0 2.0 0.00 0.00 0.00 32 999.8
20260505004227 69 327 1.0 6.0 0.00 0.00 0.00 32 999.8
20260505003735 69 83 2.0 6.0 0.00 0.00 0.00 32 999.8
20260505003227 69 96 1.0 5.0 0.00 0.00 0.00 31 999.9
20260505002714 69 60 1.0 8.0 0.00 0.00 0.00 32 999.9
20260505001546 69 141 3.0 9.0 0.00 0.00 0.00 33 1000.0
20260504235824 68 114 2.0 8.0 0.00 0.00 0.00 35 1000.2
20260504234702 68 64 3.0 9.0 0.00 0.00 0.00 34 1000.4
20260504234207 69 159 3.0 9.0 0.00 0.00 0.00 34 1000.4
20260504233656 70 83 2.0 9.0 0.00 0.00 0.00 33 1000.4
20260504233156 70 61 1.0 8.0 0.00 0.00 0.00 32 1000.5
20260504232639 71 121 1.0 8.0 0.00 0.00 0.00 32 1000.4
20260504232142 72 114 1.0 6.0 0.00 0.00 0.00 29 1000.4
20260504231626 72 239 0.0 4.0 0.00 0.00 0.00 28 1000.2
20260504231126 72 64 1.0 7.0 0.00 0.00 0.00 29 1000.2
20260504230618 71 334 1.0 7.0 0.00 0.00 0.00 31 1000.3
20260504225502 71 268 1.0 25.0 0.00 0.00 0.00 32 1000.3
20260504225008 70 199 2.0 25.0 0.00 0.00 0.00 33 1000.3
20260504224506 70 168 4.0 25.0 0.00 0.00 0.00 33 1000.2
20260504224015 71 104 4.0 25.0 0.00 0.00 0.00 32 1000.3
20260504223513 72 178 2.0 25.0 0.00 0.00 0.00 28 1000.2
20260504223020 72 215 1.0 6.0 0.00 0.00 0.00 25 1000.2
20260504221847 71 262 2.0 8.0 0.00 0.00 0.00 27 1000.1
20260504221342 71 258 3.0 8.0 0.00 0.00 0.00 27 1000.0
20260504220824 71 270 3.0 12.0 0.00 0.00 0.00 27 1000.0
20260504220305 71 249 4.0 12.0 0.00 0.00 0.00 27 1000.0
20260504215814 71 270 5.0 12.0 0.00 0.00 0.00 28 1000.0
20260504215307 71 257 5.0 10.0 0.00 0.00 0.00 27 1000.0
20260504214139 73 252 1.0 8.0 0.00 0.00 0.00 25 1000.1
20260504213621 73 262 0.0 7.0 0.00 0.00 0.00 26 1000.1
20260504213112 73 286 1.0 7.0 0.00 0.00 0.00 28 1000.1
20260504212601 73 303 1.0 7.0 0.00 0.00 0.00 28 1000.1
20260504212043 73 0 1.0 6.0 0.00 0.00 0.00 27 1000.2
20260504211527 74 310 1.0 6.0 0.00 0.00 0.00 26 1000.2
20260504211038 74 304 0.0 3.0 0.00 0.00 0.00 27 1000.3
20260504205250 73 164 0.0 6.0 0.00 0.00 0.00 28 1000.5
20260504204731 73 286 1.0 6.0 0.00 0.00 0.00 28 1000.5
20260504203542 73 320 1.0 6.0 0.00 0.00 0.00 27 1000.6
20260504203041 73 325 1.0 5.0 0.00 0.00 0.00 26 1000.6
20260504201910 73 343 2.0 9.0 0.00 0.00 0.00 27 1000.6
20260504201358 73 4 3.0 8.0 0.00 0.00 0.00 28 1000.7
20260504200854 73 285 2.0 8.0 0.00 0.00 0.00 26 1000.7
20260504195727 74 340 2.0 8.0 0.00 0.00 0.00 27 1000.9
20260504195210 74 337 2.0 7.0 0.00 0.00 0.00 27 1000.8
20260504194704 74 329 3.0 8.0 0.00 0.00 0.00 28 1000.8
20260504193525 74 328 3.0 11.0 0.00 0.00 0.00 27 1001.0
20260504193028 74 47 2.0 11.0 0.00 0.00 0.00 27 1001.1
20260504191856 74 318 2.0 11.0 0.00 0.00 0.00 28 1001.2
20260504191349 74 308 2.0 11.0 0.00 0.00 0.00 28 1001.2
20260504190839 76 230 0.0 5.0 0.00 0.00 0.00 27 1001.3
20260504185711 74 273 0.0 4.0 0.00 0.00 0.00 27 1001.4
20260504185218 73 265 0.0 4.0 0.00 0.00 0.00 27 1001.5
20260504184659 73 291 0.0 1.0 0.00 0.00 0.00 26 1001.6
20260504184153 73 321 0.0 1.0 0.00 0.00 0.00 26 1001.7
20260504183007 74 77 0.0 4.0 0.00 0.00 0.00 26 1001.7
20260504182453 75 284 1.0 0.0 0.00 0.00 0.00 26 1001.7
20260504181307 74 182 0.0 5.0 0.00 0.00 0.00 27 1001.9
20260504180812 74 328 1.0 6.0 0.00 0.00 0.00 28 1001.9
20260504180312 74 326 1.0 6.0 0.00 0.00 0.00 26 1002.0
20260504175812 73 263 1.0 6.0 0.00 0.00 0.00 28 1002.1
20260504175300 73 254 2.0 6.0 0.00 0.00 0.00 27 1002.2
20260504174809 72 293 1.0 7.0 0.00 0.00 0.00 28 1002.1
20260504174310 73 113 1.0 8.0 0.00 0.00 0.00 28 1002.2
20260504173810 72 306 2.0 8.0 0.00 0.00 0.00 27 1002.4
20260504173306 72 266 4.0 9.0 0.00 0.00 0.00 27 1002.4
20260504172749 72 179 4.0 9.0 0.00 0.00 0.00 29 1002.4
20260504171028 72 172 4.0 14.0 0.00 0.00 0.00 31 1002.5
20260504170511 72 157 4.0 14.0 0.00 0.00 0.00 29 1002.6
20260504150225 66 261 4.0 12.0 0.00 0.00 0.00 37 1003.3
20260504141245 64 263 3.0 11.0 0.00 0.00 0.00 40 1003.4
20260504140727 63 156 2.0 10.0 0.00 0.00 0.00 42 1003.5
20260504140222 62 270 3.0 10.0 0.00 0.00 0.00 43 1003.5
20260504130523 60 259 2.0 7.0 0.00 0.00 0.00 46 1003.7
20260504110431 60 255 0.0 4.0 0.00 0.00 0.00 40 1003.9
20260504100518 61 264 2.0 13.0 0.00 0.00 0.00 37 1003.4
20260504080844 57 217 3.0 13.0 0.00 0.00 0.00 36 1003.5
20260504080340 54 237 1.0 11.0 0.00 0.00 0.00 41 1003.4